Location: Naloco
(16.5478°S, 37.1017°E)
Time: 02:56:30
(UTC+00:00)

H-2A R/B - Pass Details

Date: 13 August 2020
Orbit: 734 x 836 km, 98.2° (Epoch: 23 September)

Event Time Altitude Azimuth Distance (km) Brightness Sun altitude
Exits shadow 17:46:30 25° 329° (NNW) 1,568 3.8 -34.8°
Drops below altitude 10° 17:48:39 10° 336° (NNW) 2,365 4.8 -35.3°
Sets 17:50:57 0° 340° (NNW) 3,273 5.6 -35.8°
